Weather History for KLTS - November, 2010

Change the Weather History Date:

Sunday, November 28, 2010

  Actual Average Record
Temperature  
Mean Temperature 46 °F -  
Max Temperature 63 °F 55 °F 75 °F (2006)
Min Temperature 30 °F 34 °F 21 °F (2001)
Degree Days  
Heating Degree Days 18    
Moisture  
Dew Point 31 °F    
Average Humidity 52    
Maximum Humidity 77    
Minimum Humidity 35    
Precipitation  
Precipitation 0.00 in - - ()
Sea Level Pressure  
Sea Level Pressure 29.74 in    
Wind  
Wind Speed 15 mph (SSE)    
Max Wind Speed 29 mph    
Max Gust Speed 33 mph    
Visibility 10 miles    
Events      
Averages and records for this station are not official NWS values.
T = Trace of Precipitation, MM = Missing Value Source: NWS Daily Summary

Daily Weather History Graph

Daily Weather History Graph

Search for Another Location

Airport or City:

Trip Planner

Search our weather history database for the weather conditions in past years. The results will help you decide how hot, cold, wet, or windy it might be!

Date:

Astronomy

Nov. 28, 2010 Rise Set
Actual Time 7:23 AM CST 5:26 PM CST
Civil Twilight 6:55 AM CST 5:54 PM CST
Nautical Twilight 6:24 AM CST 6:25 PM CST
Astronomical Twilight 5:54 AM CST 6:55 PM CST
Moon No Moon Rise 12:42 PM CST (11/28)
Length of Visible Light 10h 58m
Length of Day
10h 03m
Waning Gibbous, 51% of the Moon is Illuminated
Nov 28
Waning Gibbous
Nov 28
Last Quarter
Dec 5
New
Dec 13
First Quarter
Dec 21
Full

Hourly Weather History & Observations

Time (CST) Temp. Windchill Dew Point Humidity Pressure Visibility Wind Dir Wind Speed Gust Speed Precip Events Conditions
12:55 AM 34.3 °F 26.5 °F 19.6 °F 55% 29.94 in 10.0 mi SE 10.4 mph - N/A   Clear
1:55 AM 36.9 °F 29.1 °F 19.8 °F 50% 29.92 in 10.0 mi SSE 11.5 mph - N/A   Clear
2:55 AM 31.8 °F 25.4 °F 18.9 °F 59% 29.91 in 10.0 mi SE 6.9 mph - N/A   Clear
3:55 AM 30.2 °F 22.6 °F 19.8 °F 65% 29.91 in 10.0 mi SSE 8.1 mph - N/A   Clear
4:55 AM 32.5 °F 24.2 °F 20.1 °F 60% 29.89 in 10.0 mi SE 10.4 mph - N/A   Clear
5:55 AM 34.3 °F 26.5 °F 19.6 °F 55% 29.88 in 10.0 mi SE 10.4 mph - N/A   Clear
6:55 AM 34.0 °F 25.0 °F 19.6 °F 56% 29.86 in 10.0 mi SE 12.7 mph - N/A   Clear
7:55 AM 36.1 °F 27.3 °F 20.1 °F 52% 29.87 in 10.0 mi SE 13.8 mph - N/A   Clear
8:55 AM 40.6 °F 32.7 °F 21.9 °F 47% 29.87 in 10.0 mi SSE 15.0 mph - N/A   Clear
9:55 AM 47.1 °F - 23.5 °F 40% 29.84 in 10.0 mi SSE 23.0 mph - N/A   Clear
10:55 AM 52.0 °F - 25.2 °F 35% 29.81 in 10.0 mi SSE 24.2 mph 32.2 mph N/A   Clear
11:55 AM 54.7 °F - 28.0 °F 36% 29.78 in 10.0 mi SSE 23.0 mph 32.2 mph N/A   Clear
12:55 PM 58.1 °F - 31.6 °F 37% 29.72 in 10.0 mi SSE 25.3 mph 31.1 mph N/A   Clear
1:55 PM 62.6 °F - 34.2 °F 35% 29.65 in 10.0 mi SSE 28.8 mph 33.4 mph N/A   Clear
2:55 PM 63.5 °F - 36.3 °F 36% 29.62 in 10.0 mi SSE 27.6 mph 33.4 mph N/A   Clear
3:55 PM 63.0 °F - 37.9 °F 40% 29.60 in 10.0 mi South 24.2 mph 31.1 mph N/A   Clear
4:55 PM 61.5 °F - 40.1 °F 45% 29.60 in 10.0 mi SSE 21.9 mph 25.3 mph N/A   Clear
5:55 PM 58.3 °F - 40.5 °F 52% 29.59 in 10.0 mi SE 12.7 mph - N/A   Clear
6:55 PM 56.5 °F - 41.2 °F 57% 29.60 in 10.0 mi SE 16.1 mph - N/A   Clear
7:55 PM 56.5 °F - 43.0 °F 61% 29.59 in 10.0 mi SE 21.9 mph - N/A   Clear
8:55 PM 55.2 °F - 43.9 °F 66% 29.58 in 10.0 mi SSE 20.7 mph - N/A   Clear
9:55 PM 55.6 °F - 44.6 °F 67% 29.57 in 10.0 mi SSE 20.7 mph 27.6 mph N/A   Clear
10:55 PM 54.0 °F - 44.6 °F 71% 29.59 in 10.0 mi SSE 13.8 mph - N/A   Clear
11:55 PM 51.4 °F - 44.6 °F 77% 29.60 in 10.0 mi SSE 12.7 mph - N/A   Clear